DLH1287 LGTS-EDDF

Flight info

Callsign DLH1287
Flight time N/A
Altitude 38000
Route EDASI N146 BEKVA DCT MAVAR DCT AKIKA DCT PODET DCT NEMAL DCT SIMBA DCT AKINI T161 DEBHI DEBHI1A
Aircraft A320/M-SDE2E3FGIJ1LORWXYZ/HB1

Departure

Time 2026-05-05 08:30
Airport Thessaloniki Macedonia International Airport (LGTS)

Arrival

Time N/A
Airport Frankfurt Main Airport (EDDF)
Time Latitude Longitude Altitude Speed Heading
2026-05-05 07:55 40.52118 22.97881 28 ft 0 kts 337°
2026-05-05 08:19 40.52100 22.97891 29 ft 4 kts 337°
2026-05-05 08:20 40.52080 22.97902 29 ft 4 kts 346°
2026-05-05 08:20 40.52058 22.97900 29 ft 4 kts 45°
2026-05-05 08:20 40.52046 22.97872 29 ft 4 kts 68°
2026-05-05 08:20 40.52043 22.97864 29 ft 0 kts 68°
2026-05-05 08:23 40.52045 22.97869 29 ft 2 kts 68°
2026-05-05 08:23 40.52051 22.97890 29 ft 5 kts 68°
2026-05-05 08:23 40.52071 22.97955 29 ft 7 kts 68°
2026-05-05 08:23 40.52082 22.97993 28 ft 6 kts 68°
2026-05-05 08:24 40.52101 22.98057 28 ft 5 kts 72°
2026-05-05 08:24 40.52104 22.98097 28 ft 4 kts 94°
2026-05-05 08:24 40.52098 22.98126 28 ft 3 kts 105°
2026-05-05 08:24 40.52093 22.98147 28 ft 2 kts 105°
2026-05-05 08:25 40.52091 22.98160 28 ft 1 kts 105°
2026-05-05 08:25 40.52090 22.98164 28 ft 0 kts 105°
2026-05-05 08:25 40.52085 22.98190 28 ft 7 kts 105°
2026-05-05 08:26 40.52068 22.98277 28 ft 12 kts 104°
2026-05-05 08:26 40.52050 22.98373 28 ft 10 kts 103°
2026-05-05 08:26 40.52034 22.98458 28 ft 9 kts 105°
2026-05-05 08:26 40.52019 22.98532 28 ft 8 kts 104°
2026-05-05 08:27 40.52007 22.98596 28 ft 7 kts 104°
2026-05-05 08:27 40.51996 22.98651 28 ft 6 kts 105°
2026-05-05 08:27 40.51975 22.98681 28 ft 4 kts 159°
2026-05-05 08:28 40.51715 22.98678 29 ft 12 kts 204°
2026-05-05 08:28 40.51692 22.98587 28 ft 12 kts 284°
2026-05-05 08:28 40.51696 22.98568 28 ft 10 kts 286°
2026-05-05 08:29 40.51780 22.98121 29 ft 86 kts 284°
2026-05-05 08:29 40.51975 22.97098 27 ft 143 kts 284°
2026-05-05 08:29 40.52244 22.95730 432 ft 151 kts 285°
2026-05-05 08:30 40.52850 22.92996 1572 ft 169 kts 288°
2026-05-05 08:30 40.53076 22.91974 1781 ft 183 kts 287°
2026-05-05 08:30 40.53585 22.89646 2218 ft 213 kts 287°
2026-05-05 08:30 40.54013 22.87662 2585 ft 238 kts 287°
2026-05-05 08:31 40.54478 22.85495 3214 ft 252 kts 287°
2026-05-05 08:31 40.54957 22.83245 4071 ft 258 kts 287°
2026-05-05 08:31 40.55258 22.81722 4651 ft 262 kts 282°
2026-05-05 08:31 40.55065 22.78494 5795 ft 273 kts 251°
2026-05-05 08:32 40.54067 22.76356 6655 ft 279 kts 227°
2026-05-05 08:32 40.52561 22.74714 7475 ft 284 kts 218°
2026-05-05 08:32 40.50987 22.73125 8332 ft 288 kts 218°
2026-05-05 08:32 40.49533 22.71303 9145 ft 292 kts 233°
2026-05-05 08:33 40.48513 22.68990 9952 ft 295 kts 250°
2026-05-05 08:33 40.48025 22.66345 10539 ft 306 kts 264°
2026-05-05 08:33 40.47740 22.63470 10828 ft 328 kts 264°
2026-05-05 08:33 40.47459 22.60457 11446 ft 336 kts 265°
2026-05-05 08:34 40.47176 22.57383 12172 ft 342 kts 265°
2026-05-05 08:34 40.46984 22.55324 12643 ft 345 kts 265°
2026-05-05 08:34 40.46582 22.51103 13619 ft 351 kts 265°
2026-05-05 08:34 40.46307 22.47899 14290 ft 355 kts 270°